Overview Statistics Trail Chart Weather Telemetry Raw packets
 

This is the latest recevied weather packets stored in our database for station/object KO6HRZ. If no packets are shown the sender has not sent any weather packets the latest 10 day(s).

<< 53 54 55 56 57 58 >>
Time Temp. Humidity Pressure Rain* Wind** Luminosity Snow
1787849714 28.33° C 50% 1011.8 hPa 0 mm - 405 W/m² -
1787849114 27.78° C 52% 1011.5 hPa 0 mm - 371 W/m² -
1787848514 26.67° C 55% 1011.7 hPa 0 mm - 335 W/m² -
1787847908 26.67° C 55% 1011.7 hPa 0 mm - 301 W/m² -
1787847304 25° C 58% 1011.7 hPa 0 mm - 273 W/m² -
1787846700 25° C 58% 1011.8 hPa 0 mm - 242 W/m² -
1787846097 23.33° C 61% 1011.7 hPa 0 mm - 226 W/m² -
1787845494 23.33° C 63% 1011.9 hPa 0 mm - 195 W/m² -
1787844891 22.78° C 65% 1011.6 hPa 0 mm - 169 W/m² -
1787844285 21.11° C 68% 1011.7 hPa 0 mm - 151 W/m² -
1787843685 21.11° C 69% 1011.4 hPa 0 mm - 42 W/m² -
1787843083 20.56° C 71% 1011.3 hPa 0 mm - 40 W/m² -
1787842484 20° C 71% 1011.4 hPa 0 mm - 37 W/m² -
1787841883 18.89° C 73% 1011.5 hPa 0 mm - 35 W/m² -
1787841278 18.33° C 75% 1011.4 hPa 0 mm - 32 W/m² -
1787840675 17.78° C 76% 1011.4 hPa 0 mm - 29 W/m² -
1787840071 17.22° C 76% 1011.4 hPa 0 mm - 25 W/m² -
1787839471 17.78° C 76% 1011.2 hPa 0 mm - 21 W/m² -
1787838865 17.22° C 77% 1011.2 hPa 0 mm - 16 W/m² -
1787838264 17.22° C 77% 1011.3 hPa 0 mm - 10 W/m² -
1787837662 17.22° C 76% 1010.8 hPa 0 mm - 5 W/m² -
1787837059 17.22° C 75% 1010.8 hPa 0 mm - 1 W/m² -
1787836459 17.78° C 75% 1010.8 hPa 0 mm - 0 W/m² -
1787835855 17.78° C 74% 1010.9 hPa 0 mm - 0 W/m² -
1787835256 18.33° C 74% 1010.6 hPa 0 mm - 0 W/m² -

* Rain latest hour (hover to see other rain measurements)
** Current wind speed in m/s (hover to see current wind gust speed)